• In Romania
  • List of Countries
  • For 7 days
  • Water Temperature
  • Satellite Maps
  • Weather Map
  • Weather Widgets
  • user-avatar
    Login

    Hourly Weather Prutz

    Today, 19 October, Friday

    Time Temperature Precipitation Wind Pressure Humidity
    00:00 +7°C° 0 mm 1 mps 634 mmHg 90%
    01:00 +7°C° 0 mm 1 mps 635 mmHg 90%
    02:00 +6°C° 0 mm 1 mps 634 mmHg 89%
    03:00 +6°C° 0 mm 1 mps 634 mmHg 87%
    04:00 +6°C° 0 mm 1 mps 634 mmHg 86%
    05:00 +6°C° 0 mm 1 mps 634 mmHg 84%
    06:00 +6°C° 0 mm 1 mps 634 mmHg 83%
    07:00 +6°C° 0 mm 1 mps 635 mmHg 82%
    08:00 +8°C° 0 mm 1 mps 636 mmHg 72%
    09:00 +11°C° 0 mm 1 mps 637 mmHg 62%
    10:00 +13°C° 0 mm 0 mps 637 mmHg 52%
    11:00 +15°C° 0 mm 1 mps 638 mmHg 49%
    12:00 +15°C° 0 mm 1 mps 638 mmHg 46%
    13:00 +16°C° 0 mm 1 mps 638 mmHg 43%
    14:00 +15°C° 0 mm 1 mps 638 mmHg 48%
    15:00 +15°C° 0 mm 2 mps 638 mmHg 53%
    16:00 +14°C° 0 mm 2 mps 637 mmHg 59%
    17:00 +12°C° 0 mm 1 mps 637 mmHg 69%
    18:00 +9°C° 0 mm 1 mps 636 mmHg 79%
    19:00 +6°C° 0 mm 0 mps 636 mmHg 89%
    20:00 +6°C° 0 mm 0 mps 636 mmHg 89%
    21:00 +5°C° 0 mm 0 mps 636 mmHg 89%
    22:00 +5°C° 0 mm 0 mps 636 mmHg 88%
    23:00 +6°C° 0 mm 1 mps 636 mmHg 88%

    Tomorrow, 20 October, Saturday

    Time Temperature Precipitation Wind Pressure Humidity
    00:00 +6°C° 0 mm 1 mps 637 mmHg 88%
    01:00 +6°C° 0 mm 1 mps 637 mmHg 87%
    02:00 +5°C° 0 mm 1 mps 637 mmHg 86%
    03:00 +5°C° 0 mm 1 mps 637 mmHg 86%
    04:00 +5°C° 0 mm 1 mps 637 mmHg 85%
    05:00 +5°C° 0 mm 1 mps 637 mmHg 83%
    06:00 +5°C° 0 mm 1 mps 637 mmHg 82%
    07:00 +5°C° 0 mm 1 mps 637 mmHg 80%
    08:00 +8°C° 0 mm 1 mps 639 mmHg 68%
    09:00 +10°C° 0 mm 1 mps 640 mmHg 56%
    10:00 +13°C° 0 mm 1 mps 641 mmHg 43%
    11:00 +13°C° 0 mm 1 mps 641 mmHg 42%
    12:00 +14°C° 0 mm 2 mps 641 mmHg 41%
    13:00 +15°C° 0 mm 2 mps 641 mmHg 40%
    14:00 +14°C° 0 mm 2 mps 641 mmHg 46%
    15:00 +13°C° 0 mm 2 mps 640 mmHg 52%
    16:00 +12°C° 0 mm 2 mps 640 mmHg 58%
    17:00 +9°C° 0 mm 2 mps 640 mmHg 69%
    18:00 +8°C° 0 mm 1 mps 639 mmHg 79%
    19:00 +6°C° 0 mm 1 mps 639 mmHg 89%
    20:00 +6°C° 0 mm 1 mps 639 mmHg 89%
    21:00 +5°C° 0 mm 1 mps 639 mmHg 88%
    22:00 +5°C° 0 mm 1 mps 639 mmHg 88%
    23:00 +5°C° 0 mm 1 mps 639 mmHg 84%

    Day after tomorrow, 21 October, Sunday

    Time Temperature Precipitation Wind Pressure Humidity
    00:00 +4°C° 0 mm 1 mps 638 mmHg 80%
    01:00 +4°C° 0 mm 1 mps 638 mmHg 76%
    02:00 +4°C° 0 mm 1 mps 638 mmHg 70%
    03:00 +4°C° 0 mm 1 mps 638 mmHg 64%
    04:00 +4°C° 0 mm 1 mps 638 mmHg 58%
    05:00 +4°C° 0 mm 1 mps 638 mmHg 55%
    06:00 +4°C° 0 mm 1 mps 638 mmHg 52%
    07:00 +4°C° 0 mm 1 mps 638 mmHg 48%
    08:00 +7°C° 0 mm 1 mps 639 mmHg 41%
    09:00 +10°C° 0 mm 1 mps 640 mmHg 34%
    10:00 +13°C° 0 mm 1 mps 640 mmHg 27%
    11:00 +13°C° 0 mm 2 mps 640 mmHg 28%
    12:00 +14°C° 0 mm 2 mps 640 mmHg 29%
    13:00 +15°C° 0 mm 2 mps 640 mmHg 30%
    14:00 +14°C° 0 mm 2 mps 640 mmHg 36%
    15:00 +13°C° 0 mm 2 mps 639 mmHg 43%
    16:00 +12°C° 0 mm 2 mps 639 mmHg 49%
    17:00 +9°C° 0 mm 2 mps 638 mmHg 59%
    18:00 +7°C° 0 mm 2 mps 637 mmHg 68%
    19:00 +6°C° 0 mm 1 mps 637 mmHg 77%
    20:00 +6°C° 0 mm 1 mps 637 mmHg 76%
    21:00 +5°C° 0 mm 1 mps 637 mmHg 75%
    22:00 +4°C° 0 mm 2 mps 637 mmHg 74%
    23:00 +4°C° 0 mm 2 mps 637 mmHg 71%

    22 October, Monday

    Time Temperature Precipitation Wind Pressure Humidity
    00:00 +4°C° 0 mm 2 mps 637 mmHg 69%
    01:00 +4°C° 0 mm 2 mps 637 mmHg 67%
    02:00 +4°C° 0 mm 2 mps 636 mmHg 66%
    03:00 +4°C° 0 mm 2 mps 636 mmHg 65%
    04:00 +4°C° 0 mm 2 mps 636 mmHg 65%
    05:00 +3°C° 0 mm 2 mps 636 mmHg 65%
    06:00 +3°C° 0 mm 2 mps 636 mmHg 65%
    07:00 +3°C° 0 mm 2 mps 636 mmHg 66%
    08:00 +5°C° 0 mm 2 mps 637 mmHg 58%
    09:00 +7°C° 0 mm 2 mps 638 mmHg 50%
    10:00 +9°C° 0 mm 2 mps 638 mmHg 42%
    11:00 +10°C° 0 mm 2 mps 638 mmHg 42%
    12:00 +10°C° 0 mm 3 mps 638 mmHg 41%
    13:00 +11°C° 0 mm 3 mps 638 mmHg 41%
    14:00 +10°C° 0 mm 3 mps 638 mmHg 47%
    15:00 +9°C° 0 mm 3 mps 638 mmHg 53%
    16:00 +8°C° 0 mm 3 mps 637 mmHg 59%
    17:00 +7°C° 0 mm 2 mps 637 mmHg 69%
    18:00 +5°C° 0 mm 2 mps 637 mmHg 79%
    19:00 +3°C° 0 mm 2 mps 637 mmHg 88%
    20:00 +3°C° 0 mm 2 mps 637 mmHg 89%
    21:00 +3°C° 0 mm 2 mps 638 mmHg 89%
    22:00 +3°C° 0 mm 2 mps 638 mmHg 89%
    23:00 +3°C° 0.1 mm 2 mps 638 mmHg 91%

    23 October, Tuesday

    Time Temperature Precipitation Wind Pressure Humidity
    00:00 +3°C° 0.1 mm 2 mps 638 mmHg 92%
    01:00 +2°C° 0.1 mm 2 mps 637 mmHg 93%
    02:00 +2°C° 0.2 mm 2 mps 637 mmHg 94%
    03:00 +2°C° 0.2 mm 2 mps 637 mmHg 94%
    04:00 +2°C° 0.2 mm 2 mps 637 mmHg 94%
    05:00 +2°C° 0.2 mm 2 mps 637 mmHg 94%
    06:00 +1°C° 0.2 mm 2 mps 637 mmHg 94%
    07:00 +1°C° 0.2 mm 2 mps 637 mmHg 93%
    08:00 +2°C° 0.2 mm 2 mps 637 mmHg 88%
    09:00 +1°C° 0.2 mm 3 mps 637 mmHg 84%
    10:00 +1°C° 0.2 mm 3 mps 638 mmHg 79%
    11:00 +2°C° 0.1 mm 3 mps 637 mmHg 76%
    12:00 +2°C° 0.1 mm 3 mps 637 mmHg 72%
    13:00 +3°C° 0.1 mm 3 mps 637 mmHg 69%
    14:00 +2°C° 0.1 mm 3 mps 637 mmHg 71%
    15:00 +2°C° 0.1 mm 3 mps 637 mmHg 72%
    16:00 +1°C° 0.1 mm 3 mps 636 mmHg 73%
    17:00 +1°C° 0.3 mm 2 mps 637 mmHg 78%
    18:00 +1°C° 0.3 mm 2 mps 637 mmHg 83%
    19:00 -1°C° 0.3 mm 2 mps 637 mmHg 87%
    20:00 -1°C° 0.6 mm 2 mps 637 mmHg 88%
    21:00 -1°C° 0.6 mm 2 mps 637 mmHg 88%
    22:00 -1°C° 0.6 mm 2 mps 637 mmHg 88%
    23:00 -1°C° 0.8 mm 2 mps 637 mmHg 88%

    24 October, Wednesday

    Time Temperature Precipitation Wind Pressure Humidity
    00:00 -1°C° 0.8 mm 2 mps 637 mmHg 89%
    01:00 -1°C° 0.8 mm 2 mps 637 mmHg 89%
    02:00 -1°C° 0.9 mm 2 mps 637 mmHg 90%
    03:00 +1°C° 0.9 mm 2 mps 636 mmHg 90%
    04:00 +1°C° 0.9 mm 2 mps 636 mmHg 91%
    05:00 +1°C° 1 mm 2 mps 636 mmHg 91%
    06:00 +1°C° 1 mm 2 mps 636 mmHg 91%
    07:00 +1°C° 1 mm 2 mps 636 mmHg 92%
    08:00 +2°C° 1.2 mm 2 mps 636 mmHg 90%
    09:00 +3°C° 1.2 mm 2 mps 636 mmHg 89%
    10:00 +3°C° 1.2 mm 3 mps 637 mmHg 87%
    11:00 +3°C° 1.2 mm 3 mps 637 mmHg 88%
    12:00 +3°C° 1.2 mm 3 mps 636 mmHg 88%
    13:00 +4°C° 1.2 mm 3 mps 636 mmHg 88%
    14:00 +4°C° 1.3 mm 3 mps 636 mmHg 90%
    15:00 +3°C° 1.3 mm 3 mps 636 mmHg 91%
    16:00 +3°C° 1.3 mm 3 mps 636 mmHg 92%
    17:00 +3°C° 1.4 mm 3 mps 636 mmHg 93%
    18:00 +3°C° 1.4 mm 3 mps 636 mmHg 94%
    19:00 +3°C° 1.4 mm 3 mps 636 mmHg 95%
    20:00 +3°C° 0.9 mm 3 mps 636 mmHg 95%
    21:00 +3°C° 0.9 mm 3 mps 636 mmHg 96%
    22:00 +3°C° 0.9 mm 3 mps 637 mmHg 96%
    23:00 +3°C° 0.6 mm 3 mps 637 mmHg 96%
    Show more